South St. Paul, MN

11:45 AM CDT on March 29, 2017 (GMT -0500)
South Saint Paul Municipal-Fleming

Weather History for KSGS - March, 2014

Change the Weather History Date:

Thursday, March 27, 2014

  Actual Average (KSTP) Record (KSTP)
Temperature  
Mean Temperature 38 °F -  
Max Temperature 43 °F 44 °F 70 °F (2012)
Min Temperature 32 °F 28 °F 16 °F (2001)
Degree Days  
Heating Degree Days 28    
Moisture  
Dew Point 35 °F    
Average Humidity 90    
Maximum Humidity 97    
Minimum Humidity 51    
Precipitation  
Precipitation 0.44 in - - ()
Sea Level Pressure  
Sea Level Pressure 29.54 in    
Wind  
Wind Speed 8 mph (ESE)    
Max Wind Speed 16 mph    
Max Gust Speed 23 mph    
Visibility 5 miles    
Events Rain , Snow    
Averages and records for this station are not official NWS values.
T = Trace of Precipitation, MM = Missing Value Source: NWS Daily Summary

Daily Weather History Graph

Daily Weather History Graph

Search for Another Location

Airport or City:

Trip Planner

Search our weather history database for the weather conditions in past years. The results will help you decide how hot, cold, wet, or windy it might be!

Date:

Astronomy

Mar. 27, 2014 Rise Set
Actual Time 7:02 AM CDT 7:33 PM CDT
Civil Twilight 6:32 AM CDT 8:02 PM CDT
Nautical Twilight 5:58 AM CDT 8:37 PM CDT
Astronomical Twilight 5:22 AM CDT 9:13 PM CDT
Moon 5:02 AM CDT (3/27) 4:14 PM CDT (3/27)
Length of Visible Light 13h 30m
Length of Day
12h 31m
Waning Crescent, 13% of the Moon is Illuminated
Mar 27
Waning Crescent
Mar 30
New
Apr 7
First Quarter
Apr 15
Full
Apr 22
Last Quarter

Hourly Weather History & Observations

Time (CDT) Temp. Windchill Dew Point Humidity Pressure Visibility Wind Dir Wind Speed Gust Speed Precip Events Conditions
12:12 AM 43.0 °F 36.8 °F 25.9 °F 51% 29.59 in 10.0 mi SSE 11.5 mph 19.6 mph N/A   Overcast
12:32 AM 42.8 °F 35.8 °F 26.6 °F 53% 29.58 in 10.0 mi SSE 13.8 mph 18.4 mph N/A   Overcast
12:52 AM 43.0 °F 36.8 °F 26.8 °F 53% 29.58 in 10.0 mi SSE 11.5 mph 18.4 mph N/A   Overcast
1:12 AM 42.8 °F 37.0 °F 27.3 °F 54% 29.58 in 10.0 mi SSE 10.4 mph 16.1 mph N/A   Overcast
1:32 AM 42.8 °F 38.0 °F 27.9 °F 56% 29.58 in 10.0 mi SSE 8.1 mph 16.1 mph N/A   Overcast
1:52 AM 42.3 °F 37.3 °F 28.4 °F 58% 29.58 in 10.0 mi SSE 8.1 mph - N/A   Overcast
2:11 AM 42.3 °F 36.8 °F 29.1 °F 60% 29.57 in 10.0 mi SSE 9.2 mph 17.3 mph N/A   Overcast
2:32 AM 42.8 °F 37.0 °F 30.9 °F 63% 29.57 in 10.0 mi SSE 10.4 mph - N/A   Overcast
2:52 AM 42.8 °F 37.0 °F 32.0 °F 66% 29.57 in 10.0 mi SSE 10.4 mph 18.4 mph N/A   Overcast
3:11 AM 42.3 °F 36.3 °F 34.0 °F 72% 29.57 in 10.0 mi SSE 10.4 mph 16.1 mph N/A   Overcast
3:32 AM 41.0 °F 35.8 °F 35.6 °F 81% 29.57 in 7.0 mi SSE 8.1 mph - N/A   Overcast
3:52 AM 40.1 °F 36.1 °F 36.5 °F 87% 29.56 in 4.0 mi SSE 5.8 mph - N/A   Overcast
4:12 AM 40.1 °F 35.3 °F 36.9 °F 88% 29.56 in 4.0 mi SE 6.9 mph - N/A   Overcast
4:32 AM 39.7 °F 35.6 °F 37.4 °F 91% 29.55 in 3.0 mi SSE 5.8 mph - N/A   Overcast
4:52 AM 39.7 °F 34.9 °F 37.6 °F 92% 29.55 in 3.0 mi SSE 6.9 mph - N/A   Overcast
5:12 AM 39.7 °F 34.3 °F 37.8 °F 93% 29.54 in 3.0 mi SSE 8.1 mph - N/A   Overcast
5:32 AM 39.7 °F 34.9 °F 38.3 °F 95% 29.53 in 2.5 mi SSE 6.9 mph - N/A   Overcast
5:52 AM 40.1 °F 36.1 °F 38.3 °F 93% 29.53 in 2.5 mi SSE 5.8 mph - N/A   Overcast
6:12 AM 40.1 °F 35.3 °F 38.5 °F 94% 29.52 in 3.0 mi SSE 6.9 mph - N/A   Overcast
6:32 AM 40.1 °F 35.3 °F 38.7 °F 95% 29.52 in 3.0 mi SSE 6.9 mph - N/A   Overcast
6:52 AM 40.1 °F 36.1 °F 38.7 °F 95% 29.52 in 3.0 mi SSE 5.8 mph - N/A   Overcast
7:12 AM 40.1 °F 36.9 °F 38.8 °F 95% 29.52 in 3.0 mi SSE 4.6 mph - N/A   Overcast
7:31 AM 40.3 °F 36.3 °F 39.2 °F 96% 29.52 in 3.0 mi SE 5.8 mph - N/A   Overcast
7:52 AM 39.7 °F 34.9 °F 38.5 °F 95% 29.52 in 2.5 mi SE 6.9 mph - N/A   Overcast
8:12 AM 39.7 °F 34.9 °F 38.5 °F 95% 29.52 in 1.8 mi SE 6.9 mph - N/A   Overcast
8:32 AM 39.6 °F 35.4 °F 38.3 °F 95% 29.51 in 1.8 mi SE 5.8 mph - N/A   Overcast
8:52 AM 39.6 °F 34.7 °F 38.3 °F 95% 29.51 in 1.8 mi SE 6.9 mph - N/A   Overcast
9:12 AM 39.6 °F 36.3 °F 38.3 °F 95% 29.51 in 2.0 mi SE 4.6 mph - N/A   Overcast
9:32 AM 39.6 °F 35.4 °F 38.3 °F 95% 29.50 in 2.0 mi SE 5.8 mph - N/A   Overcast
9:52 AM 39.6 °F 35.4 °F 38.3 °F 95% 29.51 in 2.0 mi SE 5.8 mph - 0.01 in   Overcast
10:12 AM 39.7 °F 35.6 °F 38.5 °F 95% 29.51 in 2.0 mi SSE 5.8 mph - N/A   Overcast
10:32 AM 39.7 °F 37.6 °F 38.5 °F 95% 29.51 in 2.0 mi SE 3.5 mph - N/A   Overcast
10:52 AM 39.7 °F 36.5 °F 38.5 °F 95% 29.50 in 2.0 mi SE 4.6 mph - N/A   Overcast
11:12 AM 39.7 °F 36.5 °F 38.5 °F 95% 29.50 in 1.8 mi SE 4.6 mph - N/A   Overcast
11:32 AM 39.7 °F 36.5 °F 38.5 °F 95% 29.49 in 1.5 mi SE 4.6 mph - N/A   Overcast
11:52 AM 39.7 °F 36.5 °F 38.5 °F 95% 29.49 in 1.5 mi SE 4.6 mph - N/A   Overcast
12:12 PM 39.7 °F 37.6 °F 38.7 °F 96% 29.48 in 1.8 mi SE 3.5 mph - N/A   Overcast
12:32 PM 39.7 °F 37.6 °F 38.7 °F 96% 29.47 in 1.8 mi SE 3.5 mph - N/A   Light Drizzle
12:52 PM 39.7 °F - 38.7 °F 96% 29.47 in 2.5 mi Calm Calm - 0.02 in Rain Light Rain
1:12 PM 39.7 °F - 38.7 °F 96% 29.47 in 2.0 mi Calm Calm - 0.02 in Rain Light Rain
1:31 PM 39.9 °F 36.7 °F 38.7 °F 95% 29.47 in 2.0 mi ESE 4.6 mph - 0.07 in Rain Light Rain
1:52 PM 39.7 °F - 38.7 °F 96% 29.48 in 2.5 mi Calm Calm - 0.11 in Rain Light Rain
2:12 PM 39.7 °F 36.5 °F 38.7 °F 96% 29.47 in 3.0 mi ESE 4.6 mph - 0.01 in Rain Light Rain
2:32 PM 39.6 °F 37.4 °F 38.3 °F 95% 29.47 in 4.0 mi ESE 3.5 mph - 0.05 in Rain Light Rain
2:52 PM 38.3 °F - 37.2 °F 96% 29.47 in 5.0 mi Calm Calm - 0.10 in Rain Light Rain
3:12 PM 37.8 °F - 36.7 °F 96% 29.47 in 5.0 mi Calm Calm - 0.02 in Rain Rain
3:32 PM 36.3 °F - 35.2 °F 96% 29.47 in 3.0 mi Calm Calm - 0.06 in Snow Light Snow
3:52 PM 35.6 °F - 34.3 °F 95% 29.47 in 1.2 mi Calm Calm - 0.10 in Snow Light Snow
4:12 PM 35.1 °F - 34.0 °F 96% 29.48 in 1.5 mi Calm Calm - 0.02 in Snow Light Snow
4:32 PM 35.1 °F 31.0 °F 34.0 °F 96% 29.48 in 1.2 mi North 4.6 mph - 0.04 in   Overcast
4:52 PM 35.1 °F 32.2 °F 34.0 °F 96% 29.48 in 1.2 mi North 3.5 mph - 0.07 in Snow Light Snow
5:12 PM 35.1 °F 31.0 °F 34.2 °F 97% 29.48 in 1.5 mi North 4.6 mph - 0.01 in   Overcast
5:32 PM 35.1 °F 31.0 °F 34.2 °F 97% 29.49 in 1.5 mi North 4.6 mph - 0.02 in Snow Light Snow
5:52 PM 35.2 °F 30.3 °F 34.2 °F 96% 29.49 in 3.0 mi North 5.8 mph - 0.03 in   Overcast
6:12 PM 35.6 °F 31.7 °F 34.7 °F 97% 29.49 in 7.0 mi North 4.6 mph - N/A Rain Light Rain
6:32 PM 35.8 °F 30.1 °F 34.9 °F 97% 29.50 in 10.0 mi North 6.9 mph - N/A   Overcast
6:52 PM 36.0 °F 32.1 °F 35.1 °F 97% 29.51 in 7.0 mi North 4.6 mph - N/A   Light Drizzle
7:12 PM 35.8 °F 30.1 °F 34.9 °F 97% 29.52 in 7.0 mi North 6.9 mph - N/A   Overcast
7:32 PM 35.8 °F 27.8 °F 34.9 °F 97% 29.53 in 10.0 mi North 11.5 mph 16.1 mph N/A   Overcast
7:52 PM 35.8 °F 27.8 °F 34.9 °F 97% 29.55 in 10.0 mi North 11.5 mph 16.1 mph N/A   Overcast
8:12 PM 35.6 °F 27.1 °F 34.7 °F 97% 29.57 in 10.0 mi North 12.7 mph 20.7 mph N/A   Overcast
8:32 PM 35.6 °F 26.2 °F 34.7 °F 97% 29.58 in 10.0 mi North 15.0 mph - N/A   Overcast
8:52 PM 34.9 °F 26.6 °F 34.0 °F 97% 29.59 in 10.0 mi North 11.5 mph 20.7 mph N/A   Overcast
9:12 PM 34.7 °F 25.1 °F 33.8 °F 97% 29.61 in 10.0 mi North 15.0 mph 20.7 mph N/A   Overcast
9:32 PM 34.7 °F 26.4 °F 33.8 °F 97% 29.62 in 10.0 mi North 11.5 mph 16.1 mph N/A   Overcast
9:52 PM 34.7 °F 24.7 °F 33.8 °F 97% 29.64 in 10.0 mi North 16.1 mph 19.6 mph N/A   Overcast
10:12 PM 34.0 °F 25.0 °F 33.1 °F 96% 29.65 in 10.0 mi North 12.7 mph 17.3 mph N/A   Overcast
10:32 PM 33.3 °F 24.1 °F 32.4 °F 96% 29.66 in 10.0 mi North 12.7 mph 23.0 mph N/A   Overcast
10:51 PM 32.9 °F 23.7 °F 32.0 °F 96% 29.67 in 10.0 mi North 12.7 mph 21.9 mph N/A   Overcast
11:12 PM 32.9 °F 22.4 °F 32.0 °F 96% 29.69 in 10.0 mi North 16.1 mph 23.0 mph N/A   Overcast
11:32 PM 32.9 °F 22.8 °F 32.0 °F 96% 29.71 in 10.0 mi North 15.0 mph 21.9 mph N/A   Overcast
11:52 PM 32.9 °F 23.2 °F 32.0 °F 96% 29.72 in 10.0 mi North 13.8 mph 20.7 mph N/A   Overcast